Weather History for KVVV - November, 2012

Change the Weather History Date:

Saturday, November 24, 2012

  Actual Average (KAQP) Record (KAQP)
Temperature  
Mean Temperature 22 °F -  
Max Temperature 35 °F 33 °F 57 °F (2011)
Min Temperature 10 °F 17 °F 3 °F (1997)
Degree Days  
Heating Degree Days 42    
Moisture  
Dew Point 14 °F    
Average Humidity 69    
Maximum Humidity 92    
Minimum Humidity 44    
Precipitation  
Precipitation 0.00 in - - ()
Sea Level Pressure  
Sea Level Pressure 30.01 in    
Wind  
Wind Speed 5 mph (South)    
Max Wind Speed 18 mph    
Max Gust Speed 24 mph    
Visibility 10 miles    
Events      
Averages and records for this station are not official NWS values.
T = Trace of Precipitation, MM = Missing Value Source: NWS Daily Summary

Daily Weather History Graph

Daily Weather History Graph

Search for Another Location

Airport or City:

Trip Planner

Search our weather history database for the weather conditions in past years. The results will help you decide how hot, cold, wet, or windy it might be!

Date:

Astronomy

Nov. 24, 2012 Rise Set
Actual Time 7:36 AM CST 4:47 PM CST
Civil Twilight 7:04 AM CST 5:20 PM CST
Nautical Twilight 6:27 AM CST 5:57 PM CST
Astronomical Twilight 5:52 AM CST 6:32 PM CST
Moon 2:40 PM CST (11/24) 3:46 AM CST (11/24)
Length of Visible Light 10h 16m
Length of Day
9h 11m
Waxing Gibbous, 87% of the Moon is Illuminated
Nov 24
Waxing Gibbous
Nov 28
Full
Dec 6
Last Quarter
Dec 13
New
Dec 19
First Quarter

Hourly Weather History & Observations

Time (CST) Temp. Windchill Dew Point Humidity Pressure Visibility Wind Dir Wind Speed Gust Speed Precip Events Conditions
12:13 AM 10.4 °F - 6.8 °F 85% 30.35 in 10.0 mi Calm Calm - N/A   Clear
12:34 AM 10.4 °F - 6.8 °F 85% 30.35 in 10.0 mi Calm Calm - N/A   Clear
12:54 AM 10.4 °F - 6.8 °F 85% 30.34 in 10.0 mi Calm Calm - N/A   Clear
1:14 AM 10.4 °F - 6.8 °F 85% 30.33 in 10.0 mi Calm Calm - N/A   Clear
1:34 AM 10.4 °F - 6.8 °F 85% 30.32 in 10.0 mi Calm Calm - N/A   Clear
2:14 AM 10.4 °F - 6.8 °F 85% 30.31 in 10.0 mi Calm Calm - N/A   Clear
2:34 AM 10.4 °F - 6.8 °F 85% 30.30 in 10.0 mi Calm Calm - N/A   Clear
2:53 AM 10.4 °F - 8.6 °F 92% 30.29 in 10.0 mi Calm Calm - N/A   Clear
3:14 AM 10.4 °F - 8.6 °F 92% 30.29 in 10.0 mi Calm Calm - N/A   Clear
3:34 AM 10.4 °F - 6.8 °F 85% 30.28 in 10.0 mi Calm Calm - N/A   Clear
3:53 AM 10.4 °F - 6.8 °F 85% 30.28 in 10.0 mi Calm Calm - N/A   Mostly Cloudy
4:14 AM 12.2 °F - 8.6 °F 85% 30.26 in 10.0 mi Calm Calm - N/A   Overcast
4:33 AM 10.4 °F - 6.8 °F 85% 30.25 in 10.0 mi Calm Calm - N/A   Scattered Clouds
4:54 AM 12.2 °F 4.3 °F 8.6 °F 85% 30.23 in 10.0 mi SE 4.6 mph - N/A   Mostly Cloudy
5:14 AM 12.2 °F 2.9 °F 8.6 °F 85% 30.22 in 10.0 mi SSE 5.8 mph - N/A   Overcast
5:33 AM 12.2 °F 2.9 °F 8.6 °F 85% 30.21 in 10.0 mi SSE 5.8 mph - N/A   Overcast
5:54 AM 12.2 °F 0.7 °F 8.6 °F 85% 30.21 in 10.0 mi SE 8.1 mph - N/A   Scattered Clouds
6:14 AM 12.2 °F -1.0 °F 8.6 °F 85% 30.20 in 10.0 mi SE 10.4 mph - N/A   Mostly Cloudy
6:34 AM 12.2 °F -1.0 °F 8.6 °F 85% 30.19 in 10.0 mi SE 10.4 mph - N/A   Overcast
6:54 AM 12.2 °F -0.2 °F 8.6 °F 85% 30.19 in 10.0 mi SE 9.2 mph - N/A   Overcast
7:13 AM 12.2 °F -0.2 °F 8.6 °F 85% 30.17 in 10.0 mi SE 9.2 mph - N/A   Mostly Cloudy
7:34 AM 14.0 °F 3.9 °F 8.6 °F 79% 30.18 in 10.0 mi SSE 6.9 mph - N/A   Mostly Cloudy
7:54 AM 14.0 °F 1.2 °F 8.6 °F 79% 30.15 in 10.0 mi SE 10.4 mph - N/A   Mostly Cloudy
8:13 AM 14.0 °F 0.5 °F 10.4 °F 86% 30.14 in 10.0 mi SE 11.5 mph - N/A   Scattered Clouds
8:34 AM 15.8 °F 4.2 °F 10.4 °F 79% 30.13 in 10.0 mi SSE 9.2 mph 17.3 mph N/A   Scattered Clouds
8:54 AM 15.8 °F 3.4 °F 10.4 °F 79% 30.12 in 10.0 mi SSE 10.4 mph - N/A   Mostly Cloudy
9:13 AM 15.8 °F 2.7 °F 12.2 °F 86% 30.09 in 10.0 mi SSE 11.5 mph 17.3 mph N/A   Overcast
9:34 AM 17.6 °F 5.7 °F 12.2 °F 79% 30.09 in 10.0 mi SSE 10.4 mph 17.3 mph N/A   Scattered Clouds
9:54 AM 17.6 °F 5.0 °F 12.2 °F 79% 30.08 in 10.0 mi SSE 11.5 mph - N/A   Scattered Clouds
10:14 AM 19.4 °F 7.2 °F 12.2 °F 74% 30.06 in 10.0 mi SSE 11.5 mph 19.6 mph N/A   Scattered Clouds
10:34 AM 19.4 °F 4.1 °F 12.2 °F 74% 30.03 in 10.0 mi SE 18.4 mph - N/A   Mostly Cloudy
10:53 AM 21.2 °F 7.3 °F 14.0 °F 74% 30.01 in 10.0 mi SSE 16.1 mph 24.2 mph N/A   Mostly Cloudy
11:14 AM 21.2 °F 8.3 °F 14.0 °F 74% 30.00 in 10.0 mi SSE 13.8 mph - N/A   Mostly Cloudy
11:33 AM 23.0 °F 10.6 °F 14.0 °F 68% 29.98 in 10.0 mi SSE 13.8 mph 21.9 mph N/A   Mostly Cloudy
11:54 AM 24.8 °F 12.4 °F 15.8 °F 69% 29.95 in 10.0 mi SSE 15.0 mph 21.9 mph N/A   Mostly Cloudy
12:13 PM 26.6 °F 14.7 °F 15.8 °F 64% 29.94 in 10.0 mi SSE 15.0 mph 18.4 mph N/A   Mostly Cloudy
12:34 PM 26.6 °F 16.2 °F 15.8 °F 64% 29.92 in 10.0 mi SSE 11.5 mph 19.6 mph N/A   Scattered Clouds
12:54 PM 28.4 °F 18.0 °F 15.8 °F 59% 29.90 in 10.0 mi SSE 12.7 mph 17.3 mph N/A   Scattered Clouds
1:13 PM 28.4 °F 17.5 °F 15.8 °F 59% 29.88 in 10.0 mi SSE 13.8 mph 18.4 mph N/A   Mostly Cloudy
1:34 PM 30.2 °F 20.8 °F 15.8 °F 55% 29.86 in 10.0 mi SSE 11.5 mph 18.4 mph N/A   Mostly Cloudy
1:53 PM 30.2 °F 20.2 °F 15.8 °F 55% 29.85 in 10.0 mi SE 12.7 mph 18.4 mph N/A   Mostly Cloudy
2:14 PM 30.2 °F 20.8 °F 17.6 °F 60% 29.84 in 10.0 mi SSE 11.5 mph 18.4 mph N/A   Scattered Clouds
2:34 PM 32.0 °F 25.6 °F 17.6 °F 55% 29.84 in 10.0 mi SSE 6.9 mph - N/A   Scattered Clouds
2:53 PM 33.8 °F 25.8 °F 15.8 °F 48% 29.83 in 10.0 mi SSW 10.4 mph - N/A   Scattered Clouds
3:14 PM 35.6 °F 29.9 °F 15.8 °F 44% 29.83 in 10.0 mi SSW 6.9 mph - N/A   Mostly Cloudy
3:34 PM 35.6 °F 28.0 °F 15.8 °F 44% 29.82 in 10.0 mi South 10.4 mph - N/A   Scattered Clouds
3:54 PM 35.6 °F 29.9 °F 15.8 °F 44% 29.81 in 10.0 mi South 6.9 mph - N/A   Mostly Cloudy
4:14 PM 35.6 °F 29.9 °F 15.8 °F 44% 29.80 in 10.0 mi South 6.9 mph - N/A   Overcast
4:34 PM 33.8 °F 29.6 °F 17.6 °F 52% 29.79 in 10.0 mi South 4.6 mph - N/A   Overcast
4:54 PM 33.8 °F 29.6 °F 15.8 °F 48% 29.80 in 10.0 mi South 4.6 mph - N/A   Scattered Clouds
5:14 PM 33.8 °F 29.6 °F 15.8 °F 48% 29.80 in 10.0 mi SW 4.6 mph - N/A   Scattered Clouds
5:34 PM 33.8 °F 29.6 °F 17.6 °F 52% 29.81 in 10.0 mi WSW 4.6 mph - N/A   Clear
5:54 PM 33.8 °F - 17.6 °F 52% 29.79 in 10.0 mi Calm Calm - N/A   Scattered Clouds
6:14 PM 33.8 °F 29.6 °F 17.6 °F 52% 29.80 in 10.0 mi WSW 4.6 mph - N/A   Clear
6:33 PM 33.8 °F 30.8 °F 17.6 °F 52% 29.80 in 10.0 mi WSW 3.5 mph - N/A   Clear
6:54 PM 33.8 °F 30.8 °F 17.6 °F 52% 29.81 in 10.0 mi West 3.5 mph - N/A   Scattered Clouds
7:14 PM 33.8 °F - 17.6 °F 52% 29.81 in 10.0 mi Calm Calm - N/A   Overcast
7:33 PM 33.8 °F 29.6 °F 17.6 °F 52% 29.80 in 10.0 mi West 4.6 mph - N/A   Overcast
8:14 PM 32.0 °F 28.7 °F 19.4 °F 60% 29.79 in 10.0 mi West 3.5 mph - N/A   Mostly Cloudy
8:33 PM 32.0 °F 25.6 °F 19.4 °F 60% 29.81 in 10.0 mi West 6.9 mph - N/A   Mostly Cloudy
8:54 PM 33.8 °F 27.7 °F 19.4 °F 56% 29.80 in 10.0 mi WNW 6.9 mph - N/A   Overcast
9:13 PM 33.8 °F 27.7 °F 19.4 °F 56% 29.79 in 10.0 mi WNW 6.9 mph - N/A   Overcast
9:34 PM 32.0 °F 25.6 °F 19.4 °F 60% 29.80 in 10.0 mi WNW 6.9 mph - N/A   Scattered Clouds
9:54 PM 30.2 °F 21.9 °F 19.4 °F 64% 29.81 in 10.0 mi West 9.2 mph - N/A   Clear
10:14 PM 30.2 °F 22.6 °F 19.4 °F 64% 29.82 in 10.0 mi WNW 8.1 mph - N/A   Clear
10:34 PM 30.2 °F 22.6 °F 19.4 °F 64% 29.82 in 10.0 mi NW 8.1 mph - N/A   Clear
10:54 PM 30.2 °F 21.9 °F 21.2 °F 69% 29.83 in 10.0 mi NW 9.2 mph - N/A   Scattered Clouds
11:13 PM 32.0 °F 24.2 °F 24.8 °F 75% 29.83 in 10.0 mi NW 9.2 mph - N/A   Overcast
11:34 PM 32.0 °F 23.6 °F 24.8 °F 75% 29.84 in 10.0 mi NNW 10.4 mph - N/A   Overcast
11:54 PM 33.8 °F 24.3 °F 26.6 °F 75% 29.84 in 10.0 mi NNW 13.8 mph 20.7 mph N/A   Overcast